Theta_e
314 316 317 317 314 312 313 313 313 316 316 319 321 321 322 321 320 314 308 315 320 325 325 324 324 323 321 315 314 313 306 303 304 305 306 312 312 317 320 319 321 322 323 326 329
314 315 317 317 316 315 314 314 315 316 316 318 319 319 320 319 312 307 316 321 324 325 320 319 317 322 313 312 313 308 308 307 305 307 305 312 314 315 315 317 317 319 324 328 327
313 315 316 316 316 317 316 315 317 316 315 316 317 316 318 317 305 304 320 323 324 324 321 319 321 316 310 310 308 309 308 304 301 303 311 311 313 316 314 313 317 318 320 323 325
312 314 315 316 315 315 316 316 316 315 315 316 316 317 318 312 296 308 319 320 322 324 320 315 312 309 308 306 305 299 304 303 303 306 310 310 314 312 315 312 317 321 323 322 322
312 313 314 315 315 315 315 315 315 314 314 316 316 318 313 302 302 314 317 317 320 321 318 314 309 308 307 305 303 299 301 303 304 306 310 311 310 310 312 313 318 323 322 321 322
311 312 313 316 314 315 315 314 314 314 317 317 317 317 309 298 312 315 315 315 316 318 317 317 312 309 304 303 305 302 301 302 304 304 305 307 307 309 309 317 318 321 320 322 322
311 312 313 315 314 313 315 315 315 315 317 317 316 315 307 304 314 316 314 315 316 317 315 315 314 309 303 299 302 300 297 300 302 302 301 304 301 303 310 316 316 317 319 320 322
309 311 313 314 314 312 313 315 316 316 317 316 314 313 303 314 317 313 315 313 316 318 315 317 314 307 304 303 302 299 299 296 301 302 301 302 300 302 308 313 313 316 318 320 322
309 310 312 313 314 314 315 316 316 317 316 316 312 309 300 314 307 311 313 310 312 314 314 315 311 304 305 301 298 300 296 299 297 302 302 303 303 303 306 309 310 314 316 318 320
308 310 311 312 312 312 313 314 315 315 312 311 310 302 304 300 305 308 310 311 308 310 309 307 305 301 301 300 293 295 299 302 300 301 302 301 303 304 305 306 307 309 312 314 317
308 309 310 311 310 310 310 308 302 301 304 299 299 299 301 305 307 304 307 307 307 304 300 302 300 297 300 301 303 302 302 300 301 301 301 303 302 304 308 306 306 308 309 310 311
307 308 309 311 309 309 310 300 297 298 296 302 302 302 303 304 299 301 306 301 302 296 298 297 293 297 302 301 301 301 298 296 298 299 300 299 297 298 301 302 303 304 306 308 309
306 307 308 310 306 307 302 297 301 302 296 299 301 301 302 303 299 298 303 302 299 296 297 293 293 297 297 300 297 295 298 297 296 296 297 295 293 296 300 301 303 304 305 305 305
305 306 307 309 307 305 300 301 302 304 294 292 296 301 303 303 298 304 302 301 297 294 296 294 297 296 297 295 300 293 299 297 295 293 290 295 287 294 297 298 299 300 301 302 302
304 305 306 308 307 303 300 303 304 301 284 293 294 304 301 300 300 301 306 302 293 293 296 290 294 295 293 293 297 293 298 296 295 292 291 290 292 292 297 294 295 298 300 302 303
303 304 305 307 308 301 303 304 303 288 280 289 293 292 297 297 297 299 302 303 300 298 297 293 297 295 295 297 298 298 295 294 293 291 287 288 289 290 292 293 295 297 299 301 304
302 301 303 303 302 302 304 302 287 284 288 287 288 291 293 291 295 294 294 293 292 289 289 293 292 295 296 294 296 295 291 285 284 285 283 288 287 290 293 296 296 296 298 300 302
301 300 299 299 302 302 303 295 284 283 286 292 290 291 288 289 289 291 292 290 293 293 289 286 284 290 294 292 292 292 290 285 279 280 283 287 284 288 294 297 297 297 299 300 300
299 301 302 300 300 303 301 285 285 286 291 289 289 287 287 289 290 289 290 290 291 291 289 286 285 291 293 294 294 291 288 292 285 283 282 285 288 291 294 293 295 296 297 298 298
298 296 297 299 301 304 293 285 286 291 293 292 287 288 285 287 288 288 288 289 288 291 292 289 283 288 292 294 295 292 294 286 287 279 277 281 283 286 289 291 294 295 296 297 298
296 290 296 299 302 298 285 285 288 292 294 290 288 286 288 287 287 286 287 288 290 290 292 290 288 285 290 288 289 289 288 288 289 286 279 278 282 293 292 294 294 295 295 297 297
294 286 297 299 289 284 284 286 290 291 294 292 292 290 288 289 287 287 286 289 292 292 289 291 288 284 286 289 289 290 290 290 283 281 285 283 283 293 296 296 294 295 296 298 297
293 292 298 298 284 284 283 284 289 291 292 291 289 291 292 288 285 289 289 293 293 291 291 291 287 281 281 285 288 287 290 291 291 289 283 281 284 293 295 295 295 295 297 297 296
291 285 288 293 288 287 283 283 285 290 291 292 291 291 290 288 289 287 289 292 293 292 293 293 287 284 281 283 287 284 287 290 289 284 284 284 286 290 292 293 295 296 296 295 295
290 285 288 284 285 287 288 285 285 282 288 291 289 290 289 284 286 286 290 290 292 292 292 291 285 284 285 286 286 286 286 287 286 287 282 285 286 290 293 294 294 295 294 293 292
284 284 283 285 286 287 287 285 286 287 285 284 285 290 290 286 290 285 289 290 289 291 290 291 283 285 280 285 285 282 286 287 287 287 286 287 286 293 294 295 293 293 292 291 291
288 285 288 284 285 286 287 287 287 289 288 290 288 291 288 289 291 293 293 293 294 291 288 287 285 284 280 279 280 279 282 285 287 289 288 284 289 292 289 290 290 291 292 290 290
Wind_Speed
21 25 27 21 3 6 10 9 9 14 14 15 12 11 15 12 10 5 5 3 2 8 7 10 6 7 3 4 3 2 6 9 8 11 8 12 9 3 2 6 4 4 6 7 16
22 24 25 21 14 10 11 12 8 13 14 17 13 11 13 13 10 11 6 9 5 6 8 10 10 15 5 3 3 3 8 9 3 5 8 15 9 10 7 8 5 8 4 18 16
20 22 23 19 18 11 10 13 12 14 12 11 8 5 6 2 7 4 11 2 6 7 6 4 11 4 6 3 1 3 4 5 3 1 8 13 9 5 5 7 4 8 10 13 15
19 21 21 21 13 11 10 11 8 10 11 9 6 4 5 3 7 1 8 1 0 6 10 12 6 5 7 8 2 1 2 4 3 2 8 11 11 7 7 6 7 2 13 13 16
20 19 19 18 11 12 10 8 8 7 3 6 5 3 5 4 4 2 7 4 6 9 10 9 8 4 12 8 5 3 1 2 3 5 5 7 6 4 6 3 2 6 10 12 14
18 19 19 16 15 14 12 7 5 2 4 10 5 5 5 4 4 7 5 6 6 7 8 10 5 3 7 7 4 4 1 5 3 6 5 7 5 4 4 3 6 8 8 11 14
19 19 17 15 14 13 13 8 7 10 8 5 6 4 14 6 4 6 2 5 3 2 8 3 7 4 3 8 3 9 5 6 4 2 4 0 5 4 5 5 7 6 8 8 12
18 17 15 10 10 8 10 10 10 8 10 6 3 3 6 3 5 9 7 7 9 8 8 7 12 6 1 12 7 3 4 5 4 1 2 4 8 7 4 6 7 7 8 9 11
18 17 15 5 9 10 10 10 13 13 13 10 1 1 4 6 4 7 4 7 8 8 8 9 5 3 2 10 6 4 5 9 6 1 3 4 8 5 1 4 6 6 8 7 9
17 17 15 10 7 6 9 10 10 8 6 3 3 5 4 4 4 5 2 5 6 10 6 4 2 3 3 4 10 6 9 9 10 3 2 3 1 5 3 4 5 6 7 7 8
17 17 16 11 8 8 3 4 4 5 10 6 5 4 4 4 3 2 2 5 4 6 5 2 3 3 14 0 3 9 8 10 7 4 2 1 3 6 5 4 8 8 8 7 6
15 16 15 11 12 7 6 6 3 3 6 3 2 5 6 2 2 5 6 3 3 6 4 2 2 5 4 2 8 6 13 6 6 4 3 3 7 7 9 7 8 8 8 8 7
15 15 14 10 1 5 9 4 1 2 2 5 4 4 6 8 8 9 5 3 8 7 5 7 4 8 3 4 9 5 6 8 5 5 2 2 6 8 11 12 12 12 9 8 8
13 15 12 12 3 2 5 3 3 2 3 10 10 7 7 6 6 6 4 4 7 9 9 7 6 4 1 7 7 6 6 8 9 6 3 4 5 7 9 12 13 11 10 9 10
14 14 11 14 3 3 3 4 2 3 2 6 10 7 9 5 3 11 1 8 7 4 5 4 4 8 6 5 6 7 5 8 4 2 5 4 1 7 3 11 13 14 15 13 11
12 14 10 2 3 3 4 1 3 2 3 3 4 8 2 8 4 6 5 6 2 11 14 7 3 4 5 9 9 12 9 7 2 1 2 2 2 5 3 7 11 12 13 13 13
10 10 6 2 2 4 2 2 3 2 2 1 4 2 7 8 6 10 8 8 4 5 7 9 8 4 5 6 3 1 3 3 2 2 2 2 2 7 10 13 11 9 9 11 12
7 8 5 4 4 4 4 2 1 2 2 2 2 6 4 3 4 5 4 4 3 5 5 4 3 7 7 4 4 3 3 2 1 4 5 2 5 6 9 8 5 4 6 9 10
7 1 2 3 5 4 2 3 1 4 5 8 4 3 2 2 2 3 1 5 2 2 1 7 3 2 5 4 5 2 1 3 5 1 1 3 6 4 7 9 4 4 6 7 9
3 2 2 6 4 4 2 4 2 2 3 10 5 4 5 6 4 4 5 2 3 2 1 3 5 2 1 1 5 4 3 2 1 3 3 4 4 6 16 16 8 5 3 5 8
2 3 4 6 3 2 3 5 4 4 3 6 4 5 5 7 5 6 7 2 3 4 3 3 3 3 2 4 7 2 1 1 2 2 2 1 3 9 17 16 10 4 1 6 9
2 2 4 4 3 1 3 3 2 8 5 2 3 0 9 10 7 7 9 1 6 5 6 1 3 4 2 3 1 3 2 4 3 4 0 1 4 5 13 14 6 3 2 7 7
2 1 2 3 4 4 2 2 4 7 6 4 4 2 1 8 4 5 6 3 6 7 9 7 2 5 1 0 2 4 4 5 2 1 7 6 4 6 10 12 10 7 6 8 8
3 1 2 2 0 6 7 5 4 4 4 4 3 3 5 4 1 6 6 3 2 2 2 2 2 1 2 4 5 6 10 11 9 5 5 10 6 10 13 14 15 7 9 8 7
1 4 2 6 5 6 10 10 8 7 4 5 7 9 6 4 3 4 5 3 1 2 1 1 3 3 6 5 2 4 9 13 17 13 10 5 14 13 13 12 9 8 4 5 8
5 5 2 3 4 11 8 11 11 6 10 6 5 15 11 6 2 9 8 7 6 5 3 1 3 2 3 4 5 4 10 14 16 16 19 16 23 14 16 11 5 5 5 7 6
2 1 2 7 6 10 8 9 16 12 10 4 12 8 8 3 6 6 7 7 4 6 5 4 6 3 4 3 3 9 21 22 17 16 16 18 13 7 3 4 6 8 8 7 6
Wind_Direction
354 352 359 1 35 199 194 203 196 96 27 19 116 116 136 131 106 19 45 347 194 140 136 120 84 129 76 79 32 309 249 214 194 198 142 161 159 150 11 128 176 131 46 93 144
6 358 5 6 1 215 221 189 150 104 59 41 57 126 131 137 106 51 310 290 144 161 142 146 137 151 88 50 46 267 244 213 40 61 167 173 180 150 170 155 170 159 66 127 147
6 4 9 11 3 51 155 215 139 100 65 55 63 88 81 251 83 9 338 13 136 222 132 97 137 92 131 159 73 228 267 99 105 186 168 158 157 158 180 184 177 200 161 162 163
4 13 12 7 7 20 75 98 95 107 128 130 119 64 18 239 139 232 328 325 82 202 144 108 80 116 138 154 150 191 271 336 128 122 150 164 135 164 198 58 351 321 153 176 178
359 15 10 5 22 45 49 78 90 117 108 103 136 13 186 93 88 327 337 198 176 183 159 141 143 137 177 124 108 32 10 58 106 131 122 128 143 107 156 77 146 129 154 182 187
360 8 8 16 52 38 22 41 50 17 42 90 304 304 176 85 348 335 308 177 181 190 137 162 146 111 104 140 120 155 327 127 134 124 116 149 131 193 122 138 144 157 178 186 193
0 6 0 32 41 27 3 345 344 1 344 38 312 191 66 58 341 315 161 117 124 233 141 57 86 65 98 107 136 128 120 189 113 62 93 324 156 185 115 162 158 171 179 222 202
360 1 4 39 49 10 345 338 339 326 334 341 293 226 78 348 322 33 115 89 68 70 93 99 68 89 261 122 74 206 186 180 101 197 88 250 155 123 161 184 186 186 206 197 216
2 1 4 42 49 1 345 330 326 317 323 326 62 77 67 327 22 348 6 122 114 85 75 78 64 100 195 130 122 205 169 179 135 63 132 247 102 124 168 225 234 214 217 221 225
7 358 4 358 32 312 292 297 305 339 300 249 70 59 14 336 315 327 9 119 109 117 81 70 141 184 119 178 179 161 162 157 141 123 193 144 197 137 180 235 253 255 241 231 232
356 357 359 349 5 12 354 356 0 3 31 31 2 68 282 313 284 253 172 103 75 56 108 82 215 178 158 69 184 144 135 121 98 83 255 182 317 321 303 253 275 270 269 265 264
352 356 352 336 22 9 74 65 9 345 64 63 347 293 230 192 193 116 142 101 95 92 72 112 60 358 105 109 91 129 116 100 95 77 291 77 27 57 35 13 345 328 323 323 312
350 356 346 335 268 33 69 80 308 264 81 35 40 334 336 325 29 19 46 75 62 70 101 79 22 335 13 151 116 39 146 150 120 125 92 327 89 77 81 64 57 61 54 41 30
1 353 350 342 233 15 60 321 287 301 73 359 352 29 350 302 68 13 51 61 52 90 59 49 330 31 31 127 165 114 66 108 127 174 164 344 131 88 111 67 41 34 40 32 30
347 345 351 9 83 52 353 322 280 244 155 10 318 307 311 51 311 23 348 65 84 172 172 130 107 105 86 9 1 110 100 91 86 133 178 34 131 136 179 54 57 61 51 44 41
349 345 317 108 60 52 322 278 243 352 81 33 315 336 4 24 32 324 67 79 272 75 84 102 151 48 68 50 87 127 104 85 93 244 135 53 312 140 62 102 87 65 55 56 62
350 352 357 342 68 342 279 205 349 24 323 86 57 2 62 27 36 27 31 32 45 101 43 30 31 26 17 81 89 110 170 114 140 155 75 45 269 73 112 118 90 74 61 68 66
349 340 24 22 333 299 236 55 348 307 247 112 123 93 97 21 23 18 74 98 24 65 96 95 121 3 343 24 19 57 334 325 168 168 128 182 153 132 123 132 102 76 81 75 51
316 258 226 30 323 288 290 51 216 206 164 156 122 70 78 108 114 156 150 141 93 17 84 150 142 306 30 346 337 96 44 9 97 37 228 121 106 124 184 177 190 130 107 54 23
299 276 175 342 322 248 78 217 227 142 145 184 155 201 166 170 173 194 179 142 147 206 295 136 105 14 336 335 52 2 84 158 313 147 186 148 220 156 188 190 194 147 100 23 14
250 265 66 342 250 66 176 204 174 183 198 208 198 156 192 166 187 173 174 136 217 174 231 166 127 152 170 199 170 155 283 7 53 348 169 193 221 154 181 181 187 148 39 355 9
226 226 17 317 78 40 170 198 280 168 180 208 275 118 190 168 170 176 185 161 172 187 175 165 115 150 132 114 266 281 233 216 221 188 197 8 260 162 173 179 167 195 212 358 11
211 254 105 301 180 196 158 212 232 159 190 183 202 268 249 178 145 177 175 119 173 192 170 176 192 122 106 225 187 228 193 208 143 116 194 173 219 205 178 188 206 228 304 342 11
135 177 346 79 149 170 162 194 203 200 196 176 155 149 159 162 320 166 154 142 161 220 1 187 137 246 179 92 135 190 196 199 198 190 200 218 169 187 198 211 224 289 334 346 339
147 237 234 177 223 206 192 169 162 181 205 214 180 207 177 128 102 166 148 128 44 12 98 288 119 83 57 64 353 241 197 196 213 215 213 205 224 230 233 245 282 332 318 307 310
167 166 207 158 148 167 196 195 190 171 160 213 216 180 180 164 195 180 162 178 178 166 173 53 115 91 39 4 7 306 264 235 231 239 255 258 272 283 260 269 254 219 263 283 289
137 352 256 150 169 173 207 195 195 166 204 164 192 183 184 175 107 76 96 75 103 152 140 130 144 166 155 336 306 272 229 226 233 236 235 237 246 208 133 163 226 250 250 260 251